パンスターズ彗星

P/2018 P3 ( PanSTARRS )

English version
Home page
Updated on August 15, 2020

---------------------------------------------------------------------

・ プロフィール

発見日 2018年8月8日
発見光度 21.0等
発見者 Pan-STARRS 1 telescope (Haleakala)

・ 写真集

・ 軌道要素

Epoch 2018 Oct. 9.0 TT = JDT 2458400.5
T 2018 Oct.  9.45812 TT                                 MPCW
q   1.7564375            (2000.0)            P               Q
n   0.18902838     Peri.  305.88301     +0.98765425     -0.08270407
a   3.0068934      Node    59.21035     +0.13595471     +0.87443119
e   0.4158631      Incl.    8.90903     -0.07781644     +0.47804826
P   5.21
From 282 observations 2018 Aug. 8-2019 Feb. 4, mean residual 0".7.

・ 光度変化

        m1 = -27   + 5 logΔ + 180 log r(t-5)  [ ,5]  (              〜2018年11月12日)
        m1 =  12.6 + 5 logΔ +  18 log r       [5, ]  (2018年11月12日〜              )

---------------------------------------------------------------------

軌道要素はM.P.E.C. 2019-J142に掲載されたものです。
光度グラフはComet for Windowsで作成したものです。

---------------------------------------------------------------------

Copyright(C) Seiichi Yoshida (comet@aerith.net). All rights reserved.